Overview Statistics Trail Chart Weather Telemetry Raw packets
 

This is the latest recevied weather packets stored in our database for station/object AA6HF. If no packets are shown the sender has not sent any weather packets the latest 10 day(s).

<< 72 73 74 75 76 77 78 >>
Time Temp. Humidity Pressure Rain* Wind** Luminosity Snow
1788165806 27.78° C 37% 1006.2 hPa 0 mm - - -
1788165506 27.78° C 37% 1006.2 hPa 0 mm - - -
1788165206 27.78° C 37% 1006.3 hPa 0 mm - - -
1788164906 27.78° C 37% 1006.2 hPa 0 mm - - -
1788164606 28.33° C 36% 1006.2 hPa 0 mm - - -
1788164306 28.33° C 36% 1006.3 hPa 0 mm - - -
1788164006 28.33° C 35% 1006.4 hPa 0 mm - - -
1788163706 28.33° C 36% 1006.5 hPa 0 mm - - -
1788163406 28.33° C 36% 1006.3 hPa 0 mm - - -
1788163106 28.33° C 35% 1006.3 hPa 0 mm - - -
1788162806 28.33° C 35% 1006.4 hPa 0 mm - - -
1788162506 28.89° C 34% 1006.4 hPa 0 mm - - -
1788162206 28.89° C 33% 1006.4 hPa 0 mm - - -
1788161907 29.44° C 32% 1006.4 hPa 0 mm - - -
1788161607 29.44° C 32% 1006.3 hPa 0 mm - - -
1788161307 30° C 32% 1006.3 hPa 0 mm - - -
1788161007 30° C 30% 1006.2 hPa 0 mm - - -
1788160707 30.56° C 30% 1006.2 hPa 0 mm - - -
1788160407 30.56° C 30% 1006.3 hPa 0 mm - - -
1788160107 30.56° C 29% 1006.1 hPa 0 mm - - -
1788159807 30.56° C 29% 1006.1 hPa 0 mm - - -
1788159507 31.11° C 29% 1006.1 hPa 0 mm - - -
1788159207 30.56° C 29% 1006.1 hPa 0 mm - - -
1788158907 30.56° C 29% 1006.1 hPa 0 mm - - -
1788158607 30.56° C 29% 1006 hPa 0 mm - - -

* Rain latest hour (hover to see other rain measurements)
** Current wind speed in m/s (hover to see current wind gust speed)